Wind_Speed
17 17 16 16 16 16 17 17 17 18 18 19 19 20 20 20 20 20 21 22 22 22 22 23 23 23 22 21 20 19 18 17 16 14 12 11 9 8 7 7 8 8 9 10
16 16 16 16 16 17 17 18 18 18 18 19 19 20 20 19 19 19 20 21 22 22 22 22 22 22 21 21 20 20 19 18 17 16 14 12 11 10 10 10 11 11 12 13
15 15 16 16 16 17 17 17 18 18 19 19 19 19 19 19 19 19 19 20 21 21 22 21 22 22 21 21 21 20 20 20 19 17 16 15 14 13 12 12 12 12 12 12
15 15 15 16 17 17 17 17 18 18 18 18 18 18 18 18 18 18 18 18 19 19 19 19 20 20 20 20 20 20 21 21 21 20 19 18 17 16 15 14 14 13 13 13
15 15 15 16 17 17 17 17 18 18 18 18 18 17 17 17 17 17 17 17 17 17 18 17 18 18 18 19 20 21 21 22 23 23 22 21 20 18 18 17 17 16 16 15
12 13 15 16 16 17 17 18 18 19 18 17 17 16 16 16 16 16 15 15 15 16 17 17 17 17 17 18 20 20 21 22 23 24 24 23 22 21 21 21 20 20 19 18
9 10 12 14 15 16 16 17 18 19 19 18 17 15 14 14 14 14 14 14 15 15 16 17 17 17 17 18 19 20 20 22 23 24 24 24 23 23 23 23 23 23 22 21
7 8 9 11 13 15 15 16 18 19 19 18 17 15 14 13 13 13 13 13 14 15 16 16 17 17 17 17 18 19 20 22 23 24 24 24 24 24 24 24 25 25 25 24
8 8 8 9 11 12 13 15 16 17 18 18 17 15 14 13 12 12 11 12 12 13 14 15 16 17 17 17 18 19 20 21 22 23 24 24 24 24 24 25 26 27 27 27
10 9 9 9 10 10 12 13 14 15 16 18 17 16 14 13 11 10 9 9 10 11 13 14 15 16 17 17 18 18 19 20 21 22 23 23 23 24 24 25 26 27 28 28
12 11 11 10 10 10 10 11 12 13 14 16 17 16 15 13 11 9 8 7 8 10 11 12 13 14 16 17 18 19 19 20 20 21 22 23 23 24 24 25 26 27 27 28
15 13 13 11 11 10 10 10 11 11 12 14 15 16 15 14 11 9 7 6 6 7 9 10 11 12 14 16 17 19 20 20 20 21 21 22 23 24 25 25 26 26 27 28
15 15 14 13 12 11 10 10 10 10 10 11 12 14 15 14 12 9 7 5 5 6 7 8 9 10 12 14 16 18 19 20 21 21 21 22 23 24 25 25 26 26 26 26
16 15 14 13 12 11 10 9 9 9 9 9 10 11 12 13 13 10 8 6 5 5 5 6 7 8 9 11 14 16 18 19 20 21 21 22 22 23 24 25 25 26 25 25
17 16 15 13 13 12 11 10 9 8 8 8 9 9 10 11 12 11 9 7 5 5 5 5 6 6 7 9 11 13 15 17 19 20 20 21 22 22 23 24 24 25 25 24
18 17 16 15 14 13 12 11 10 9 8 8 8 8 8 9 9 10 9 8 6 6 5 5 5 5 6 7 9 11 13 14 16 18 19 20 21 22 22 23 23 23 23 23
22 21 19 17 16 15 15 14 12 11 10 9 9 8 8 8 8 8 8 8 7 7 6 6 6 5 6 6 7 8 10 12 14 15 17 18 19 20 21 21 22 22 22 22
26 25 22 21 19 18 18 17 16 15 13 12 11 10 9 9 9 9 8 8 8 8 7 7 7 7 7 7 7 8 8 10 11 13 14 15 17 18 19 20 20 20 20 20
30 28 26 25 23 22 21 20 20 18 17 16 15 14 12 11 11 10 10 9 9 9 8 8 8 8 8 8 8 8 9 9 9 10 11 12 13 15 16 17 17 18 18 18
33 31 30 28 27 26 25 24 23 22 21 20 19 18 17 15 14 13 12 12 11 11 10 10 10 10 10 10 10 10 10 10 10 10 10 10 11 11 12 13 14 15 15 15
37 35 34 32 31 30 29 28 27 26 25 24 23 22 21 20 19 18 16 15 14 13 13 13 12 12 12 12 11 11 11 11 11 11 10 10 10 10 10 10 11 11 12 12
41 39 38 37 36 35 34 32 31 30 29 28 27 26 25 24 23 22 21 19 18 17 17 16 15 15 14 14 14 14 13 13 13 12 12 11 10 10 9 9 9 9 9 9
45 44 43 42 41 40 39 37 36 34 33 32 30 29 28 28 27 26 26 24 23 22 21 20 19 18 18 17 17 16 16 16 15 15 14 13 12 12 11 10 10 9 8 8
50 49 49 48 47 46 45 44 42 40 38 37 35 34 33 32 31 31 30 29 28 28 27 25 24 23 22 21 20 20 19 19 19 18 17 16 16 15 14 13 12 12 11 10
54 54 53 53 53 52 51 49 48 46 44 42 41 40 39 37 36 35 34 33 33 33 32 32 30 29 27 26 25 24 23 23 22 22 21 20 20 19 18 18 17 16 15 14
59 58 57 57 57 56 56 54 53 51 50 48 47 45 44 43 42 41 39 38 37 37 37 37 36 35 34 32 30 28 27 27 26 26 25 24 24 23 23 22 22 21 20 19
65 64 63 62 61 61 60 59 58 57 55 53 52 51 50 49 48 47 45 43 42 41 41 41 40 39 39 38 36 34 32 31 30 29 29 28 28 27 26 26 25 24 24 23
Wind_Direction
49 46 45 46 44 42 39 36 34 31 29 27 25 25 27 32 38 42 46 49 51 54 56 57 58 59 59 59 58 57 55 53 50 46 41 34 23 10 355 340 326 314 305 299
50 47 45 44 43 41 38 36 34 32 30 28 29 29 33 37 42 45 47 49 53 56 57 57 56 55 54 53 52 51 48 45 40 36 30 22 11 359 348 337 325 314 306 301
49 47 45 45 42 40 37 36 34 33 31 31 31 31 34 39 43 47 49 52 53 54 55 55 53 51 51 49 48 45 42 38 34 30 25 19 12 4 357 350 342 332 321 311
47 47 47 44 44 41 39 36 34 32 31 31 32 33 36 41 45 49 51 51 51 51 51 50 48 46 44 42 41 39 37 35 32 30 26 23 19 16 12 5 360 353 344 332
45 46 44 41 40 39 36 35 33 32 32 32 33 35 38 42 45 47 50 50 49 49 47 45 44 43 42 40 38 36 35 34 32 31 28 26 24 22 19 15 9 3 355 347
35 38 39 36 36 35 34 35 32 31 32 32 32 35 37 40 42 44 46 47 45 44 43 42 42 42 41 39 36 35 34 33 31 29 29 29 29 28 26 22 17 12 6 360
17 24 29 28 29 29 32 30 31 32 32 32 32 35 35 36 39 40 42 43 42 41 40 40 40 41 38 36 35 34 34 32 30 30 31 31 31 31 29 26 23 19 15 10
350 359 11 14 18 23 24 24 27 28 29 31 33 35 34 35 37 39 41 43 44 42 40 38 38 38 36 34 33 33 32 31 30 30 30 31 31 31 30 28 27 24 21 18
316 331 342 351 2 9 13 17 20 23 24 27 29 31 32 33 36 39 42 44 43 40 38 36 36 35 34 32 31 30 30 30 30 30 30 30 31 30 29 28 28 27 26 24
294 301 312 325 335 346 356 4 10 15 19 22 24 26 28 30 33 37 41 44 42 38 37 35 34 33 33 32 31 29 27 28 29 29 29 29 29 29 28 28 28 28 29 29
282 288 296 306 313 322 334 345 354 1 8 14 18 21 23 26 30 34 38 41 39 37 36 34 33 33 32 32 30 28 26 26 27 28 28 28 28 28 27 27 27 28 30 32
276 281 286 293 299 305 315 326 335 345 354 4 11 16 19 21 24 29 33 35 34 32 32 32 32 32 32 31 30 28 27 26 28 28 27 27 28 28 28 27 28 29 31 34
272 276 280 285 290 296 302 311 321 331 341 351 1 9 14 17 20 22 24 24 20 19 23 26 29 30 30 30 30 29 27 26 27 27 27 27 27 27 28 28 29 31 33 36
269 272 277 281 286 291 297 303 309 317 328 338 348 358 7 13 17 19 18 14 7 3 8 15 20 23 25 27 28 28 27 26 26 26 26 26 27 27 28 29 30 32 34 37
264 268 272 277 281 285 289 294 299 305 313 323 335 344 354 3 10 14 13 7 1 355 354 360 6 11 15 18 21 23 23 24 24 24 25 26 27 27 28 30 31 33 36 39
260 263 266 271 275 278 281 284 289 295 301 309 319 328 338 347 357 5 7 5 357 349 344 344 346 351 357 3 9 14 18 20 21 23 24 26 27 27 28 30 32 35 37 40
258 260 262 265 268 270 273 276 281 286 291 296 302 309 318 327 336 345 351 354 353 345 336 331 329 326 331 341 351 359 6 11 15 17 20 23 25 27 28 30 32 35 38 41
257 259 260 261 262 263 266 269 273 277 282 286 290 294 300 306 313 320 327 333 337 338 333 324 316 312 312 316 325 334 345 354 2 8 13 17 21 25 27 29 31 34 37 41
257 258 258 259 259 260 261 264 267 270 273 277 281 285 288 291 294 299 305 311 316 319 321 319 313 307 305 305 307 313 321 330 341 351 359 5 12 18 23 26 29 32 35 39
257 257 257 258 258 258 259 260 262 264 267 270 273 277 280 282 284 286 289 294 299 302 304 305 305 303 302 301 299 300 305 311 319 328 338 348 356 4 12 18 23 27 31 35
254 255 255 255 256 257 257 258 258 260 262 264 267 270 274 276 279 281 282 284 287 290 292 294 294 294 294 295 295 295 295 299 305 311 317 324 332 342 352 1 9 16 21 25
250 251 252 253 254 255 256 256 257 258 259 261 263 265 268 272 275 277 279 281 282 283 284 286 287 288 287 287 287 287 289 290 293 297 302 307 311 316 323 332 342 352 1 7
248 249 250 251 252 253 254 255 256 257 259 260 261 263 265 267 270 273 276 278 279 280 281 282 282 283 283 283 282 281 281 282 284 286 288 291 296 300 304 308 312 317 325 333
246 248 249 250 251 253 254 255 256 258 259 260 262 263 265 267 268 270 272 274 276 277 279 280 280 280 280 280 280 279 278 277 277 278 279 280 282 285 288 292 296 299 300 302
245 246 248 250 251 253 254 256 257 259 261 262 263 265 266 267 268 269 270 272 272 274 275 276 278 278 278 278 278 277 277 276 275 273 273 273 274 275 277 279 282 286 289 290
243 245 247 249 251 252 254 256 258 260 261 263 264 265 267 268 269 270 270 271 272 272 273 274 275 275 276 276 276 276 275 274 274 273 271 270 270 271 272 273 275 277 279 282
243 244 245 247 248 251 253 255 256 258 260 262 263 265 266 267 268 269 270 270 270 271 271 272 273 273 274 274 275 274 274 273 272 272 271 270 270 269 269 270 271 272 274 275
Height
5873 5871 5868 5866 5863 5860 5857 5853 5850 5846 5842 5839 5835 5831 5827 5823 5819 5815 5812 5808 5805 5802 5799 5796 5794 5791 5789 5787 5785 5783 5781 5780 5778 5777 5775 5774 5773 5771 5770 5769 5768 5766 5765 5763
5877 5874 5871 5869 5866 5863 5859 5856 5852 5848 5845 5841 5837 5833 5829 5826 5822 5819 5816 5813 5810 5807 5804 5801 5799 5797 5794 5792 5790 5788 5785 5783 5781 5779 5777 5775 5773 5771 5769 5768 5766 5764 5762 5760
5880 5877 5875 5872 5869 5866 5863 5859 5855 5851 5848 5843 5840 5836 5832 5829 5825 5822 5820 5817 5814 5812 5809 5807 5804 5802 5799 5797 5794 5792 5789 5786 5784 5781 5778 5776 5773 5771 5768 5766 5764 5761 5759 5756
5883 5881 5878 5878 5871 5869 5865 5862 5858 5854 5850 5846 5843 5839 5835 5832 5829 5826 5824 5822 5819 5817 5814 5812 5809 5806 5804 5801 5799 5796 5792 5789 5786 5783 5780 5777 5774 5771 5768 5765 5762 5759 5756 5753
5886 5883 5880 5878 5874 5871 5868 5865 5861 5857 5853 5849 5845 5842 5839 5836 5833 5830 5828 5826 5823 5821 5819 5816 5813 5811 5808 5805 5802 5799 5796 5792 5789 5785 5782 5778 5775 5771 5768 5765 5762 5758 5754 5751
5888 5885 5883 5882 5877 5873 5871 5867 5863 5859 5855 5852 5848 5845 5843 5839 5836 5834 5831 5829 5827 5825 5822 5820 5817 5814 5812 5809 5806 5803 5799 5796 5792 5788 5784 5780 5777 5773 5770 5766 5762 5758 5753 5749
5889 5886 5884 5883 5879 5876 5874 5872 5866 5862 5858 5854 5851 5848 5845 5842 5839 5837 5835 5832 5830 5828 5825 5823 5820 5818 5815 5812 5810 5806 5803 5799 5796 5792 5788 5784 5780 5776 5772 5768 5763 5758 5753 5748
5889 5887 5887 5883 5880 5878 5876 5872 5868 5864 5860 5857 5853 5850 5847 5844 5842 5839 5837 5835 5833 5831 5829 5826 5824 5821 5818 5816 5813 5810 5806 5803 5799 5795 5791 5787 5783 5779 5775 5770 5765 5760 5754 5748
5889 5889 5886 5883 5881 5879 5876 5873 5870 5866 5863 5859 5856 5852 5849 5846 5844 5842 5839 5838 5836 5834 5832 5829 5827 5824 5821 5819 5816 5813 5810 5806 5802 5799 5795 5791 5786 5782 5778 5773 5768 5763 5757 5750
5887 5886 5884 5882 5880 5878 5876 5874 5871 5868 5865 5861 5858 5855 5851 5848 5846 5843 5841 5840 5838 5836 5834 5832 5829 5827 5824 5821 5819 5816 5813 5809 5806 5802 5798 5794 5790 5786 5781 5776 5771 5766 5760 5754
5884 5883 5882 5881 5879 5877 5875 5873 5871 5869 5866 5863 5860 5856 5853 5850 5847 5845 5843 5841 5840 5838 5836 5834 5832 5830 5827 5824 5822 5819 5815 5812 5808 5805 5801 5797 5793 5789 5784 5779 5774 5769 5764 5758
5881 5881 5880 5879 5877 5876 5874 5872 5871 5869 5866 5864 5861 5858 5854 5851 5848 5846 5844 5842 5841 5839 5838 5836 5834 5832 5830 5827 5824 5821 5818 5815 5811 5808 5804 5800 5796 5792 5787 5783 5778 5773 5768 5763
5877 5877 5876 5875 5874 5873 5872 5870 5869 5867 5865 5863 5861 5858 5855 5852 5849 5847 5845 5843 5842 5840 5839 5837 5835 5834 5832 5829 5827 5824 5821 5818 5814 5811 5807 5803 5799 5795 5791 5786 5782 5777 5772 5768
5873 5873 5872 5871 5870 5870 5869 5868 5867 5865 5864 5862 5860 5858 5856 5853 5850 5848 5846 5844 5842 5841 5839 5838 5836 5835 5833 5831 5829 5826 5823 5820 5817 5814 5810 5806 5803 5799 5794 5790 5786 5781 5777 5773
5869 5869 5869 5868 5867 5866 5866 5865 5864 5863 5862 5860 5859 5857 5855 5853 5851 5848 5846 5844 5843 5841 5840 5838 5837 5835 5834 5832 5830 5828 5825 5823 5820 5816 5813 5810 5806 5802 5798 5794 5790 5786 5782 5778
5864 5864 5864 5864 5863 5863 5862 5862 5861 5860 5859 5858 5857 5856 5854 5852 5851 5848 5846 5844 5843 5841 5840 5838 5837 5836 5834 5833 5831 5829 5827 5824 5822 5819 5816 5812 5809 5806 5802 5798 5794 5791 5787 5784
5857 5857 5858 5858 5859 5859 5858 5858 5858 5857 5856 5855 5854 5853 5852 5851 5849 5848 5846 5844 5842 5841 5839 5838 5837 5835 5834 5833 5831 5829 5827 5825 5823 5820 5818 5815 5812 5809 5806 5802 5799 5795 5792 5789
5850 5851 5852 5852 5853 5853 5853 5853 5853 5853 5852 5852 5851 5850 5849 5848 5847 5846 5844 5843 5841 5840 5838 5837 5835 5834 5833 5832 5830 5829 5827 5826 5824 5822 5819 5817 5814 5811 5809 5806 5803 5800 5797 5794
5842 5843 5844 5845 5846 5847 5847 5847 5847 5847 5847 5847 5847 5846 5845 5844 5844 5843 5842 5840 5839 5838 5837 5835 5834 5832 5831 5830 5829 5828 5827 5825 5824 5822 5820 5818 5816 5813 5811 5808 5806 5803 5801 5798
5832 5834 5836 5837 5837 5839 5839 5840 5840 5841 5841 5841 5841 5841 5840 5840 5839 5839 5838 5837 5836 5835 5834 5833 5832 5830 5829 5828 5827 5826 5825 5824 5822 5821 5820 5818 5817 5815 5813 5810 5808 5806 5804 5802
5822 5824 5825 5827 5828 5829 5830 5831 5832 5833 5834 5834 5835 5835 5835 5834 5834 5833 5833 5833 5832 5831 5830 5830 5829 5828 5826 5825 5824 5823 5822 5821 5820 5819 5818 5817 5816 5815 5813 5811 5810 5808 5806 5804
5809 5811 5813 5815 5817 5818 5819 5821 5822 5824 5825 5826 5827 5827 5828 5828 5827 5827 5827 5827 5827 5826 5826 5825 5824 5824 5823 5822 5821 5820 5819 5818 5817 5816 5816 5815 5814 5813 5812 5811 5810 5808 5807 5805
5794 5797 5799 5801 5803 5805 5807 5809 5811 5813 5814 5816 5817 5819 5819 5820 5820 5820 5820 5820 5820 5820 5819 5819 5819 5819 5818 5817 5817 5816 5815 5814 5813 5813 5812 5812 5811 5811 5810 5809 5808 5807 5806 5805
5779 5781 5784 5786 5789 5791 5794 5796 5798 5801 5803 5805 5807 5808 5809 5811 5811 5812 5812 5813 5813 5813 5812 5812 5812 5812 5812 5812 5811 5811 5810 5809 5809 5808 5808 5807 5807 5807 5806 5806 5805 5805 5804 5803
5762 5765 5768 5771 5774 5776 5779 5782 5785 5788 5790 5792 5794 5796 5798 5799 5801 5802 5803 5803 5804 5804 5804 5804 5804 5804 5804 5804 5804 5804 5804 5803 5803 5803 5802 5802 5802 5801 5801 5801 5801 5800 5800 5799
5745 5748 5751 5755 5758 5761 5764 5767 5770 5773 5776 5778 5781 5783 5785 5786 5788 5789 5791 5792 5793 5793 5794 5794 5795 5795 5795 5795 5796 5796 5796 5796 5796 5796 5795 5795 5795 5795 5795 5795 5794 5794 5794 5793
5724 5728 5732 5736 5740 5743 5747 5750 5753 5756 5760 5762 5765 5767 5770 5771 5773 5775 5777 5779 5780 5781 5782 5782 5783 5784 5785 5785 5786 5786 5786 5787 5787 5787 5787 5787 5787 5787 5787 5787 5787 5787 5787 5786